Regional Weather Roundup
Issued by NWS Charleston, WV

Home | Current Version | Previous Version | Graphics & Text | Print | Product List | Glossary On
Versions: 1 2 3 4 5 6 7 8 9 10 11 12 13 14 15 16 17 18 19 20 21 22 23 24 25 26 27 28 29 30 31 32 33 34 35 36 37 38 39 40 41 42 43 44 45 46 47 48 49 50
000
ASUS41 KRLX 251510
RWRRLX
West Virginia Regional Weather Roundup
National Weather Service Charleston WV
1100 AM EDT FRI JUL 25 2014

Note: "fair" indicates few or no clouds below 12,000 feet with no
significant weather and/or obstructions to visibility.

WVZ003-251600-
Northern Panhandle of West Virginia

CITY           SKY/WX    TMP DP  RH WIND       PRES   REMARKS
WHEELING       SUNNY     69  48  47 CALM      30.13R
$$

WVZ009-251600-
Northwest West Virginia

CITY           SKY/WX    TMP DP  RH WIND       PRES   REMARKS
PARKERSBURG    SUNNY    N/A N/A N/A MISG      30.16
$$

WVZ006-251600-
Western West Virginia

CITY           SKY/WX    TMP DP  RH WIND       PRES   REMARKS
HUNTINGTON     CLOUDY    63  61  93 S5        30.10F FOG
$$

WVZ015-251600-
West Central West Virginia

CITY           SKY/WX    TMP DP  RH WIND       PRES   REMARKS
CHARLESTON     MOSUNNY   70  61  73 CALM      30.11F
$$

WVZ031-251600-
North Central West Virginia

CITY           SKY/WX    TMP DP  RH WIND       PRES   REMARKS
CLARKSBURG     MOSUNNY   66  59  78 S6        30.12F
MORGANTOWN     SUNNY     72  53  51 VRB5      30.12F
$$

WVZ035-042-045-251600-
South Central West Virginia

CITY           SKY/WX    TMP DP  RH WIND       PRES   REMARKS
BECKLEY        CLOUDY    64  58  80 NW3       30.17R
BLUEFIELD      PTSUNNY   68  58  70 SW5       30.17R
LEWISBURG      MOSUNNY   70  58  66 N3        30.15S
$$

WVZ047-251600-
Northern Mountains of West Virginia

CITY           SKY/WX    TMP DP  RH WIND       PRES   REMARKS
ELKINS         MOSUNNY   65  57  75 VRB5      30.16F
$$

WVZ052-251600-
Eastern Panhandle of West Virginia

CITY           SKY/WX    TMP DP  RH WIND       PRES   REMARKS
MARTINSBURG    SUNNY     73  52  47 E3        30.10F
PETERSBURG     SUNNY     70  51  50 E3        30.11F
$$



USA.gov is the U.S. government's official web portal to all federal, state and local government web resources and services.